CAPE
1 1 2 0 0 0 2 2 0 0 0 0 0 0 0 0 0 0 0 0 0 0 0 0 0 0 0 0 0 0 0 0 0 0 0 0 0 0 0 0 0 0 0 0 0 0 0
0 0 0 0 0 0 3 4 0 0 0 0 0 0 0 0 0 0 0 0 0 0 0 0 0 1 0 0 0 0 0 0 0 0 0 0 0 0 0 0 0 0 0 0 0 0 0
0 0 0 0 0 0 0 0 0 0 0 0 0 0 0 0 0 0 0 0 0 0 0 0 0 2 0 0 0 0 0 0 0 0 0 0 0 0 0 0 0 0 0 0 0 0 0
0 0 0 0 0 0 0 0 0 0 0 0 0 0 0 0 0 0 0 0 0 0 0 0 0 1 0 0 0 0 0 0 0 0 0 0 0 0 0 0 0 0 0 0 0 0 0
24 2 0 0 0 0 0 0 0 0 4 3 0 0 0 0 0 0 0 0 0 0 0 0 0 0 0 0 0 0 0 0 0 0 0 0 0 0 0 0 0 0 0 0 0 0 0
38 40 22 1 0 0 0 1 0 2 6 5 3 0 0 0 0 0 0 0 0 0 0 0 0 0 0 0 0 0 0 0 0 0 0 0 0 0 0 0 0 0 0 0 0 0 0
23 20 60 45 24 1 2 2 1 1 4 3 4 0 3 0 0 0 0 0 0 0 0 0 0 0 0 0 0 0 0 0 0 0 0 0 0 0 0 0 0 0 0 0 0 0 0
33 37 38 32 48 41 11 2 1 1 4 5 0 7 3 0 0 0 0 0 0 0 0 0 0 0 0 0 0 0 0 0 0 0 0 0 0 0 0 0 0 0 0 0 0 0 0
36 28 37 48 47 58 42 6 1 1 4 7 6 8 4 0 0 0 0 0 0 0 0 0 0 0 0 0 0 0 0 0 0 0 0 0 0 0 0 0 0 0 0 0 0 0 0
33 29 26 34 41 41 35 1 1 2 5 10 3 10 0 0 0 0 0 0 0 0 0 0 0 0 0 0 0 0 0 0 0 0 0 0 0 0 0 0 0 0 0 0 0 0 0
26 28 22 22 36 16 35 20 1 5 9 4 10 3 0 0 0 0 0 0 0 0 0 0 0 0 0 0 0 0 0 0 0 0 0 0 0 0 0 0 0 0 0 0 0 0 0
1 20 28 25 23 33 17 0 1 6 10 10 3 0 0 0 0 0 0 0 0 0 0 0 0 0 0 0 0 0 0 0 0 0 0 0 0 0 0 0 0 0 0 0 0 0 0
0 1 28 23 21 28 31 0 3 7 14 7 1 0 0 0 0 0 0 0 0 0 0 0 0 0 0 0 0 0 0 0 0 0 0 0 0 0 0 0 0 0 0 0 0 0 0
0 1 10 29 16 18 0 1 5 16 13 3 1 0 0 0 0 0 0 0 0 0 0 0 0 0 0 0 0 0 0 0 0 0 0 0 0 0 0 0 0 0 0 0 0 0 0
1 0 6 31 15 3 1 7 15 15 7 2 3 0 0 0 0 0 0 0 0 0 0 0 0 0 0 0 0 0 0 0 0 0 0 0 0 0 0 0 0 0 0 0 0 0 0
0 2 12 36 3 0 3 13 12 9 8 2 0 0 0 0 0 0 0 0 0 0 0 0 0 0 0 0 0 0 0 0 0 0 0 0 0 0 0 0 0 0 0 8 4 5 1
3 4 33 15 0 3 11 12 12 12 2 0 0 1 0 0 0 0 0 0 0 0 0 0 0 0 0 0 0 0 0 0 0 0 0 0 2 0 0 0 0 0 0 0 0 0 1
2 15 10 0 3 10 12 15 11 9 0 0 0 0 0 0 0 0 0 0 0 0 0 0 0 0 0 0 0 0 0 0 0 0 0 0 0 2 0 0 0 0 0 0 0 2 1
8 29 0 5 9 15 18 19 14 0 0 0 0 0 0 0 0 0 0 0 0 0 0 0 0 0 0 0 0 0 0 0 0 0 0 0 0 0 0 0 10 6 18 44 17 3 23
1 1 7 17 23 26 25 16 5 3 1 0 0 0 0 0 0 0 0 0 0 0 0 0 0 0 0 0 0 0 0 0 0 0 0 1 0 0 0 0 0 0 1 10 12 5 0
7 12 21 30 34 38 21 6 15 25 1 0 0 0 0 0 0 0 0 0 0 0 0 0 0 0 0 0 0 0 0 0 0 0 0 0 1 0 0 0 0 9 4 2 6 2 1
38 37 39 31 24 13 10 24 20 4 0 0 0 0 0 0 0 0 0 0 0 0 0 0 0 0 0 0 0 0 0 0 0 0 1 38 0 1 0 0 12 3 2 1 0 3 2
53 33 21 20 28 28 38 52 25 0 0 0 0 0 0 0 0 0 0 0 0 0 0 0 0 0 0 0 0 0 0 0 0 0 1 2 0 1 0 1 0 0 3 3 1 1 0
46 49 51 41 32 18 14 8 0 0 0 0 0 0 0 0 0 0 0 0 0 0 0 0 0 0 0 0 0 0 0 0 0 0 6 1 2 5 6 2 0 1 12 0 1 2 1
54 60 60 40 18 6 11 2 0 0 0 0 0 0 0 0 0 0 0 0 0 0 0 0 0 0 0 0 0 0 0 1 1 10 12 3 6 3 5 1 1 11 0 0 4 2 1
47 60 36 18 19 19 5 0 0 0 0 0 0 0 0 0 0 0 0 0 0 0 0 0 0 0 0 0 0 0 0 0 2 11 1 13 9 3 8 0 0 0 0 0 0 0 2
78 47 21 9 14 3 0 0 0 0 0 0 0 0 0 0 0 0 0 0 0 0 0 0 0 0 0 0 0 0 0 0 0 0 3 5 5 2 0 0 2 0 0 0 1 0 1
50 50 41 25 15 4 0 0 0 0 0 0 0 0 0 0 0 0 0 0 0 0 0 0 0 0 0 0 0 0 0 0 1 0 2 1 1 0 0 0 0 0 0 0 0 2 0
61 55 47 34 25 5 0 0 0 0 0 0 0 0 0 0 0 0 0 0 0 0 0 0 0 0 0 0 0 0 0 0 0 0 0 0 0 0 2 0 1 3 4 1 0 0 1
CIN
-0 -0 -0 -0 -0 -0 -0 -0 -0 -0 -0 -0 -0 -0 -0 -0 -0 -0 -0 -0 -0 -0 -0 -0 -0 -0 -0 -0 -0 -0 -0 -0 -0 -0 -0 -0 -0 -0 -0 -0 -0 -0 -0 -0 -0 -0 -0
-0 -0 -0 -1 -0 -0 -0 -0 -0 -0 -0 -0 -0 -0 -0 -0 -0 -0 -0 -0 -0 -0 -0 -0 -0 -0 -0 -0 -0 -0 -0 -0 -0 -0 -0 -0 -0 -0 -0 -0 -0 -0 -0 -0 -0 -0 -0
-0 -0 -0 -0 -0 -0 -0 -0 -0 -0 -0 -0 -0 -0 -0 -0 -0 -0 -0 -0 -0 -0 -0 -0 -0 -0 -0 -0 -0 -0 -0 -0 -0 -0 -0 -0 -0 -0 -0 -0 -0 -0 -0 -0 -0 -0 -0
-2 -8 -0 -0 -0 -0 -0 -0 -0 -0 -0 -0 -0 -0 -0 -0 -0 -0 -0 -0 -0 -0 -0 -0 -0 -0 -0 -0 -0 -0 -0 -0 -0 -0 -0 -0 -0 -0 -0 -0 -0 -0 -0 -0 -0 -0 -0
-0 -11 -0 -0 -0 -0 -0 -0 -0 -0 -0 -0 -0 -0 -0 -0 -0 -0 -0 -0 -0 -0 -0 -0 -0 -0 -0 -0 -0 -0 -0 -0 -0 -0 -0 -0 -0 -0 -0 -0 -0 -0 -0 -0 -0 -0 -0
-1 -0 -6 -2 -0 -0 -0 -0 -1 -0 -0 -0 -0 -0 -0 -0 -0 -0 -0 -0 -0 -0 -0 -0 -0 -0 -0 -0 -0 -0 -0 -0 -0 -0 -0 -0 -0 -0 -0 -0 -0 -0 -0 -0 -0 -0 -0
-5 -2 -0 -0 -11 -1 -0 -0 -0 -0 -0 -0 -0 -0 -0 -0 -0 -0 -0 -0 -0 -0 -0 -0 -0 -0 -0 -0 -0 -0 -0 -0 -0 -0 -0 -0 -0 -0 -0 -0 -0 -0 -0 -0 -0 -0 -0
-3 -3 -3 -2 -0 -1 -0 -0 -0 -0 -0 -0 -0 -0 -1 -0 -0 -0 -0 -0 -0 -0 -0 -0 -0 -0 -0 -0 -0 -0 -0 -0 -0 -0 -0 -0 -0 -0 -0 -0 -0 -0 -0 -0 -0 -0 -0
-1 -3 -4 -2 -4 -4 -0 -18 -0 -0 -0 -0 -0 -0 -1 -0 -0 -0 -0 -0 -0 -0 -0 -0 -0 -0 -0 -0 -0 -0 -0 -0 -0 -0 -0 -0 -0 -0 -0 -0 -0 -0 -0 -0 -0 -0 -0
-2 -4 -1 -9 -1 -0 -0 -1 -0 -0 -0 -0 -0 -0 -0 -0 -0 -0 -0 -0 -0 -0 -0 -0 -0 -0 -0 -0 -0 -0 -0 -0 -0 -0 -0 -0 -0 -0 -0 -0 -0 -0 -0 -0 -0 -0 -0
-0 -2 -2 -7 -8 -2 -3 -3 -0 -0 -0 -0 -0 -0 -0 -0 -0 -0 -0 -0 -0 -0 -0 -0 -0 -0 -0 -0 -0 -0 -0 -0 -0 -0 -0 -0 -0 -0 -0 -0 -0 -0 -0 -0 -0 -0 -0
-0 -0 -1 -1 -16 -12 -10 -0 -0 -0 -0 -0 -0 -0 -0 -0 -0 -0 -0 -0 -0 -0 -0 -0 -0 -0 -0 -0 -0 -0 -0 -0 -0 -0 -0 -0 -0 -0 -0 -0 -0 -0 -0 -0 -0 -0 -0
-0 -0 -1 -1 -19 -33 -14 -0 -0 -0 -0 -0 -0 -0 -0 -0 -0 -0 -0 -0 -0 -0 -0 -0 -0 -0 -0 -0 -0 -0 -0 -0 -0 -0 -0 -0 -0 -0 -0 -0 -0 -0 -0 -0 -0 -0 -0
-0 -0 -0 -1 -13 -28 -1 -0 -0 -0 -0 -0 -0 -0 -0 -0 -0 -0 -0 -0 -0 -0 -0 -0 -0 -0 -0 -0 -0 -0 -0 -0 -0 -0 -0 -0 -0 -0 -0 -0 -0 -0 -0 -0 -0 -0 -0
-0 -0 -3 -0 -12 -52 -0 -0 -0 -0 -0 -0 -0 -0 -0 -0 -0 -0 -0 -0 -0 -0 -0 -0 -0 -0 -0 -0 -0 -0 -0 -0 -0 -0 -0 -0 -0 -0 -0 -0 -0 -0 -0 -0 -0 -0 -0
-0 -0 -3 -1 -18 -0 -0 -0 -0 -0 -0 -0 -0 -0 -0 -0 -0 -0 -0 -0 -0 -0 -0 -0 -0 -0 -0 -0 -0 -0 -0 -0 -0 -0 -0 -0 -0 -0 -0 -0 -0 -0 -0 -7 -9 -1 -2
-0 -3 -0 -4 -0 -0 -0 -0 -0 -0 -0 -0 -0 -6 -0 -0 -0 -0 -0 -0 -0 -0 -0 -0 -0 -0 -0 -0 -0 -0 -0 -0 -0 -0 -0 -0 -1 -0 -0 -0 -0 -0 -0 -0 -0 -0 -2
-13 -0 -5 -0 -0 -0 -0 -0 -0 -0 -0 -0 -0 -0 -0 -0 -0 -0 -0 -0 -0 -0 -0 -0 -0 -0 -0 -0 -0 -0 -0 -0 -0 -0 -0 -0 -0 -0 -0 -0 -0 -0 -0 -0 -0 -2 -3
-3 -2 -0 -0 -0 -0 -0 -0 -0 -0 -0 -0 -0 -0 -0 -0 -0 -0 -0 -0 -0 -0 -0 -0 -0 -0 -0 -0 -0 -0 -0 -0 -0 -0 -0 -4 -2 -0 -0 -0 -6 -2 -2 -0 -0 -0 -0
-2 -0 -0 -0 -0 -0 -0 -0 -0 -1 -22 -0 -0 -0 -0 -0 -0 -0 -0 -0 -0 -0 -0 -0 -0 -0 -0 -0 -0 -0 -0 -0 -0 -0 -0 -3 -0 -0 -0 -0 -0 -0 -0 -0 -0 -0 -0
-0 -0 -0 -0 -0 -0 -0 -0 -1 -22 -35 -0 -0 -0 -0 -0 -0 -0 -0 -0 -0 -0 -0 -0 -0 -0 -0 -0 -0 -0 -0 -0 -0 -0 -0 -3 -0 -0 -0 -0 -0 -0 -0 -0 -0 -0 -0
-0 -0 -0 -0 -0 -0 -0 -0 -0 -39 -0 -0 -0 -0 -0 -0 -0 -0 -0 -0 -0 -0 -0 -0 -0 -0 -0 -0 -0 -0 -0 -0 -0 -0 -1 -0 -0 -0 -0 -0 -0 -0 -0 -0 -0 -0 -0
-0 -0 -2 -0 -0 -0 -0 -0 -5 -12 -0 -0 -0 -0 -0 -0 -0 -0 -0 -0 -0 -0 -0 -0 -0 -0 -0 -0 -0 -0 -0 -0 -0 -0 -0 -0 -0 -0 -0 -0 -0 -0 -0 -0 -0 -0 -0
-0 -0 -0 -0 -0 -0 -0 -0 -0 -0 -0 -0 -0 -0 -0 -0 -0 -0 -0 -0 -0 -0 -0 -0 -0 -0 -0 -0 -0 -0 -0 -0 -0 -0 -0 -0 -0 -0 -0 -0 -0 -0 -0 -0 -0 -0 -0
-0 -0 -0 -3 -27 -15 -48 -54 -0 -0 -0 -0 -0 -0 -0 -0 -0 -0 -0 -0 -0 -0 -0 -0 -0 -0 -0 -0 -0 -0 -0 -0 -0 -0 -0 -0 -0 -0 -0 -0 -0 -0 -0 -0 -0 -0 -0
-0 -0 -2 -17 -25 -32 -35 -7 -0 -0 -0 -0 -0 -0 -0 -0 -0 -0 -0 -0 -0 -0 -0 -0 -0 -0 -0 -0 -0 -0 -0 -0 -0 -0 -0 -0 -0 -0 -0 -0 -0 -0 -0 -0 -0 -0 -0
-0 -1 -17 -32 -21 -17 -0 -0 -0 -0 -0 -0 -0 -0 -0 -0 -0 -0 -0 -0 -0 -0 -0 -0 -0 -0 -0 -0 -0 -0 -0 -0 -0 -0 -0 -0 -0 -0 -0 -0 -0 -0 -0 -0 -0 -0 -0
-0 -4 -7 -0 -0 -2 -1 -0 -0 -0 -0 -0 -0 -0 -0 -0 -0 -0 -0 -0 -0 -0 -0 -0 -0 -0 -0 -0 -0 -0 -0 -0 -0 -0 -0 -0 -0 -0 -0 -0 -0 -0 -0 -0 -0 -0 -0
-19 -32 -28 -0 -0 -2 -0 -0 -0 -0 -0 -0 -0 -0 -0 -0 -0 -0 -0 -0 -0 -0 -0 -0 -0 -0 -0 -0 -0 -0 -0 -0 -0 -0 -0 -0 -0 -0 -0 -0 -0 -0 -0 -0 -0 -0 -0
Wind_Speed
24 24 23 23 23 22 22 22 19 17 16 15 12 10 11 11 9 10 11 10 12 14 14 14 13 13 5 3 10 4 5 4 4 4 3 4 3 3 2 2 3 5 4 3 6 9 7
25 25 25 25 24 23 23 23 21 19 18 15 12 10 10 11 9 10 11 11 12 13 13 12 13 9 2 5 2 2 2 3 2 2 3 3 4 4 2 3 2 2 4 7 6 8 7
27 26 26 26 26 25 25 24 23 21 19 16 13 11 11 10 8 10 13 12 12 12 14 9 8 3 2 16 1 6 2 2 3 3 2 3 2 2 1 6 2 4 6 5 5 2 5
26 27 27 27 26 26 26 25 23 22 20 18 16 13 10 8 6 9 12 14 14 14 14 11 7 2 9 4 1 7 2 4 5 5 3 5 5 4 3 3 8 5 1 1 1 8 5
24 26 26 26 26 26 26 27 26 24 21 18 16 14 10 6 6 8 11 15 17 13 5 6 4 3 11 5 3 5 6 4 3 4 3 3 5 3 3 4 5 4 5 2 4 3 5
22 23 25 26 27 26 25 26 25 24 21 19 16 13 10 6 7 7 11 15 7 1 6 3 2 2 5 2 3 2 4 2 2 3 1 4 5 3 3 4 5 5 6 4 2 6 7
24 22 23 24 24 25 24 26 25 25 23 21 17 14 10 5 5 5 6 3 2 2 3 9 6 4 4 8 4 2 2 2 3 4 5 2 3 5 9 8 6 4 5 11 6 7 6
23 23 23 23 24 26 27 28 28 24 24 23 18 15 10 7 4 5 2 3 2 3 7 8 9 8 3 3 5 6 0 3 4 4 3 3 5 9 3 3 4 6 8 8 8 5 5
23 23 23 23 22 21 23 25 26 26 26 22 20 14 8 1 4 3 4 3 2 4 1 7 5 5 5 8 7 6 7 4 4 6 5 6 4 4 4 2 3 4 5 5 15 4 8
23 23 23 22 21 21 24 27 28 27 24 21 18 15 12 6 1 2 3 1 1 2 3 5 4 4 5 4 3 1 5 3 1 5 5 4 1 3 3 4 5 7 8 9 10 8 9
23 23 24 22 21 22 22 25 27 27 26 23 21 18 13 9 0 3 1 1 2 3 4 3 4 2 3 2 3 9 4 3 4 3 4 4 3 5 3 4 2 5 6 8 7 6 8
25 24 25 24 21 19 19 24 25 27 25 24 23 19 13 4 0 3 1 3 3 1 8 2 3 3 5 7 4 5 6 6 2 2 1 3 2 4 7 5 5 8 6 8 7 2 10
27 27 27 26 24 22 22 26 28 27 26 26 22 19 12 6 5 4 3 3 2 5 2 2 2 4 6 4 4 5 5 5 2 4 2 5 4 1 5 2 4 6 6 4 5 1 7
31 30 31 28 25 22 26 31 30 29 28 24 21 16 5 3 2 6 4 4 6 4 3 1 3 6 5 4 2 2 2 2 3 5 1 1 4 2 3 3 4 2 6 4 6 2 5
35 34 31 30 25 27 33 32 31 29 28 25 21 4 3 2 4 3 4 3 4 3 5 5 3 4 3 1 2 3 1 3 4 4 3 4 5 5 13 12 6 1 5 7 7 10 7
38 34 32 30 29 34 35 33 33 30 30 27 5 4 3 7 6 4 4 4 3 2 4 2 3 3 4 3 1 2 2 4 2 2 6 3 7 9 9 2 6 9 3 2 3 3 5
30 30 33 32 35 36 37 37 34 32 30 18 4 5 4 6 3 4 4 5 3 3 3 2 2 4 3 4 3 3 3 2 3 2 3 1 3 5 3 6 5 2 3 5 4 4 3
28 31 33 36 39 38 39 37 35 33 29 9 5 5 3 4 4 3 3 5 4 5 4 3 3 3 4 4 4 5 6 5 5 4 1 2 2 5 7 10 12 7 4 3 1 3 5
29 32 37 38 40 40 38 36 33 32 21 5 4 4 2 1 5 3 2 3 3 3 2 2 3 3 2 5 2 5 2 3 4 3 3 3 0 5 7 4 0 3 1 3 5 6 6
34 37 39 39 38 38 36 35 33 31 16 4 5 6 1 1 1 4 5 4 4 4 3 3 3 3 3 3 3 2 3 3 2 5 7 1 5 8 7 9 9 8 12 12 15 4 3
41 42 41 40 38 35 36 33 28 25 14 2 2 4 6 6 3 5 4 3 6 4 2 2 1 3 4 2 3 4 3 3 4 4 2 8 6 8 15 17 13 6 6 14 5 4 3
38 38 36 37 34 33 32 28 26 21 13 3 5 6 3 3 7 7 3 6 5 4 5 3 3 5 5 5 6 4 2 3 6 3 5 4 3 2 14 12 4 4 10 8 12 9 10
34 35 35 34 33 32 28 25 22 19 8 3 1 1 6 2 4 5 5 6 6 7 2 4 5 3 5 10 10 12 10 7 5 3 3 4 3 2 2 18 8 6 6 9 10 16 5
33 32 32 31 28 27 24 21 17 15 6 3 1 3 6 3 4 4 6 4 6 5 8 2 5 3 2 4 5 4 5 6 10 15 9 5 4 3 5 6 3 3 5 11 16 11 11
29 30 28 27 25 24 20 17 14 12 10 4 1 4 4 4 3 6 9 6 6 3 1 4 4 4 2 2 2 3 1 2 7 8 5 11 6 4 4 4 4 6 4 4 5 7 8
26 26 24 23 21 19 17 16 16 16 13 5 3 1 5 7 1 5 7 3 4 2 1 3 1 2 3 2 1 2 2 2 2 1 3 4 3 2 4 3 3 3 8 5 6 3 6
25 23 23 22 20 17 16 16 14 13 10 6 3 4 5 6 1 3 4 5 4 3 2 2 4 4 2 2 3 2 1 2 2 4 5 4 3 3 3 4 4 6 12 7 2 3 5
24 22 21 20 18 17 15 16 14 12 11 6 1 4 5 4 1 3 3 5 3 2 4 1 3 4 3 4 2 1 2 1 1 2 4 4 3 3 3 3 4 11 2 1 6 7 9
22 21 20 18 18 17 15 15 14 13 11 7 4 3 3 7 4 2 3 1 3 6 6 1 4 2 3 4 1 1 2 1 2 0 4 3 3 2 5 3 4 5 9 8 6 8 6
Wind_Direction
228 229 229 224 225 224 222 223 218 222 226 236 233 241 264 275 291 306 314 326 328 323 326 329 329 340 11 352 254 292 114 144 120 152 158 132 138 155 226 271 325 196 256 332 308 291 265
225 225 225 225 225 225 224 222 218 215 218 223 225 229 246 266 287 299 311 317 319 316 318 324 324 336 19 278 270 326 84 126 217 186 157 144 168 176 222 245 190 249 279 283 265 262 253
228 223 223 223 223 221 223 220 215 213 212 209 215 218 240 260 281 299 306 309 312 309 307 304 308 304 285 244 67 335 318 225 188 175 191 203 173 132 99 310 263 276 307 308 274 247 253
233 227 224 223 225 223 222 219 214 210 209 203 207 220 219 237 268 291 303 307 304 299 290 275 283 214 253 249 290 296 182 274 217 210 224 172 157 129 165 275 347 344 309 32 247 346 328
242 234 227 223 223 224 221 215 211 208 207 208 199 210 202 214 258 290 305 305 305 300 280 191 145 168 265 303 250 249 170 209 160 152 199 124 120 147 89 89 352 346 265 241 323 350 9
245 242 235 228 225 225 224 216 210 204 201 199 191 201 196 211 275 309 314 303 283 159 87 137 178 4 275 332 347 25 188 269 187 122 37 68 54 89 49 95 240 268 287 249 243 289 322
245 247 244 236 235 222 219 216 205 203 196 190 187 198 192 221 279 320 356 4 20 303 231 199 189 236 272 304 298 81 64 349 126 98 177 7 95 201 213 206 210 244 269 273 271 260 282
244 242 243 247 249 247 222 215 203 196 197 185 185 186 172 210 261 304 113 254 211 177 304 232 243 268 273 87 331 313 8 180 140 197 122 32 221 228 217 225 231 252 267 278 279 240 243
245 244 238 238 238 235 225 209 200 193 192 183 167 172 165 170 307 311 215 207 310 104 220 288 194 207 222 146 202 244 155 182 163 161 170 171 231 122 167 294 272 226 235 257 276 315 202
249 241 237 233 232 228 211 205 203 187 181 171 155 151 143 189 62 220 235 153 202 131 20 252 236 260 147 185 107 203 17 175 65 163 153 223 211 104 223 232 218 269 227 260 287 331 298
263 241 232 231 231 233 224 214 189 179 166 160 156 148 160 160 109 210 116 132 166 51 284 131 130 308 45 120 130 356 348 25 128 155 122 256 26 1 326 242 227 265 269 256 275 287 341
263 253 233 225 218 216 206 195 178 163 162 158 151 152 148 99 22 218 1 58 33 225 234 45 46 29 77 20 35 348 18 33 68 83 143 196 318 214 212 219 223 276 314 280 260 205 255
256 251 241 223 215 207 202 174 161 161 157 151 146 154 159 145 194 138 80 63 196 227 31 85 71 84 87 32 53 23 20 24 41 16 45 328 245 182 60 17 352 74 33 331 331 178 245
251 246 248 220 212 191 179 165 160 155 146 145 143 143 168 169 184 117 72 79 215 112 29 280 115 76 86 20 78 40 93 38 43 72 257 322 322 55 8 122 233 244 168 210 262 248 295
249 247 231 217 194 174 163 158 149 142 139 142 134 116 134 211 157 134 108 173 227 164 153 147 62 94 125 162 128 59 26 191 179 138 127 301 250 330 307 292 156 184 200 206 254 270 279
252 236 214 196 173 165 157 150 142 141 144 138 123 115 162 148 156 95 99 231 191 123 119 112 152 130 155 171 121 64 262 192 191 180 153 261 291 229 277 307 240 188 215 77 197 233 233
227 202 197 175 164 159 151 144 143 145 142 134 92 110 189 134 117 70 164 222 164 157 125 155 147 125 144 155 138 199 208 272 170 139 147 185 206 282 319 214 221 169 215 208 215 239 231
195 192 170 161 157 151 146 143 145 145 148 140 122 104 176 139 114 165 164 198 126 157 69 70 90 104 149 150 193 219 223 216 165 130 229 218 168 278 251 275 259 242 293 108 257 219 233
185 168 155 153 147 143 141 139 143 142 146 132 114 101 39 112 142 193 247 94 79 120 62 102 102 90 91 173 221 213 218 290 104 148 194 171 72 320 331 276 343 113 309 287 227 255 210
152 142 140 138 137 136 135 138 142 148 165 95 110 117 197 174 172 151 141 146 116 57 87 91 121 113 128 196 230 262 227 268 134 167 261 170 214 195 230 272 331 300 293 287 260 230 132
125 127 128 127 128 129 132 135 144 161 163 102 67 174 172 172 208 157 115 109 135 139 102 121 131 165 141 207 209 226 239 329 281 249 250 162 245 216 248 262 276 322 8 344 52 102 73
113 115 117 118 121 123 132 145 156 164 160 98 143 126 78 115 124 105 117 180 147 128 135 192 179 170 178 210 211 190 173 206 234 318 162 178 258 284 274 250 145 77 30 27 27 71 95
109 112 116 118 127 136 143 153 155 159 162 131 88 206 101 109 114 111 187 165 162 117 238 169 177 164 213 235 233 236 232 199 214 201 200 212 209 249 319 137 154 48 12 45 59 37 3
114 116 120 123 127 134 143 144 149 161 159 121 146 99 90 130 125 140 139 115 139 174 162 215 158 168 245 347 272 229 233 231 228 246 227 238 172 184 178 176 58 159 94 91 78 45 36
112 113 116 121 126 131 130 132 145 162 154 97 144 99 113 98 115 115 114 107 97 84 66 174 209 210 335 329 316 339 67 203 228 227 227 221 200 235 163 71 99 170 22 350 3 46 26
112 111 115 118 121 118 116 114 115 117 122 94 62 42 96 120 206 103 110 120 132 130 11 243 309 289 54 82 29 63 80 302 5 24 132 330 199 275 204 134 181 57 331 313 309 43 24
109 110 114 117 113 110 105 101 105 106 99 102 62 25 88 101 11 99 125 142 112 107 146 324 343 355 39 75 63 52 47 304 10 5 332 343 3 23 41 104 107 352 316 291 219 207 78
113 114 115 113 112 107 100 93 94 91 84 77 108 9 116 96 40 51 101 123 89 109 144 242 48 344 39 70 71 336 75 316 70 60 349 19 340 16 316 120 140 358 344 68 110 83 104
114 113 110 110 107 102 96 88 83 81 82 85 77 330 9 82 132 43 37 58 133 175 128 60 158 166 191 91 82 81 73 8 105 176 13 54 31 63 360 77 53 20 60 57 89 115 111